Madison, SD

5:57 PM CST on December 09, 2019 (GMT -0600)
Madison Municipal

Weather History for KMDS - October, 2019

Change the Weather History Date:

Saturday, October 12, 2019

  Actual Average Record
Temperature  
Mean Temperature 30 °F -  
Max Temperature 32 °F 62 °F 66 °F (2011)
Min Temperature 28 °F 37 °F 26 °F (2018)
Degree Days  
Heating Degree Days 35    
Moisture  
Dew Point 31 °F    
Average Humidity 98    
Maximum Humidity 100    
Minimum Humidity 86    
Precipitation  
Precipitation 12.67 in - - ()
Sea Level Pressure  
Sea Level Pressure 29.74 in    
Wind  
Wind Speed 18 mph ()    
Max Wind Speed 25 mph    
Max Gust Speed 38 mph    
Visibility 6.9 miles    
Events Rain , Snow    
Averages and records for this station are not official NWS values.
T = Trace of Precipitation, MM = Missing Value Source: Averaged Metar Reports

Daily Weather History Graph

Daily Weather History Graph

Search for Another Location

Airport or City:

Astronomy

Oct. 12, 2019 Rise Set
Actual Time 7:39 AM CDT 6:49 PM CDT
Civil Twilight 7:10 AM CDT 7:18 PM CDT
Nautical Twilight 6:36 AM CDT 7:52 PM CDT
Astronomical Twilight 6:03 AM CDT 8:25 PM CDT
Moon 6:50 PM CDT (10/12) 6:12 AM CDT (10/12)
Length of Visible Light 12h 08m
Length of Day
11h 10m
Waxing Gibbous, 99% of the Moon is Illuminated
Oct 12
Waxing Gibbous
Oct 13
Full
Oct 21
Last Quarter
Oct 27
New
Nov 4
First Quarter

Hourly Weather History & Observations

Time (CDT) Temp. Windchill Dew Point Humidity Pressure Visibility Wind Dir Wind Speed Gust Speed Precip Events Conditions
12:15 AM 28.4 °F 15.8 °F 26.6 °F 93% 29.84 in 10.0 mi West 18.4 mph 26.5 mph N/A   Clear
12:20 AM 28.4 °F 15.8 °F 26.6 °F 93% 29.83 in 10.0 mi West 18.4 mph 26.5 mph N/A   Clear
12:35 AM 28.4 °F 15.4 °F 24.8 °F 86% 29.82 in 10.0 mi West 19.6 mph 28.8 mph N/A   Clear
12:55 AM 28.4 °F 15.8 °F 26.6 °F 93% 29.82 in 10.0 mi West 18.4 mph 24.2 mph N/A   Clear
1:00 AM 28.4 °F 16.2 °F 26.6 °F 93% 29.82 in 10.0 mi West 17.3 mph 24.2 mph N/A   Clear
1:15 AM 28.4 °F 15.8 °F 26.6 °F 93% 29.81 in 10.0 mi West 18.4 mph 25.3 mph N/A   Clear
1:35 AM 28.4 °F 16.6 °F 26.6 °F 93% 29.81 in 10.0 mi West 16.1 mph 26.5 mph N/A   Clear
1:55 AM 28.4 °F 16.2 °F 26.6 °F 93% 29.80 in 10.0 mi West 17.3 mph 27.6 mph N/A   Clear
2:15 AM 28.4 °F 16.2 °F 26.6 °F 93% 29.79 in 10.0 mi WSW 17.3 mph 24.2 mph N/A   Clear
2:20 AM 28.4 °F 16.6 °F 26.6 °F 93% 29.79 in 10.0 mi West 16.1 mph 26.5 mph N/A   Clear
2:35 AM 28.4 °F 15.8 °F 26.6 °F 93% 29.79 in 10.0 mi WSW 18.4 mph 24.2 mph N/A   Clear
2:55 AM 28.4 °F 16.6 °F 26.6 °F 93% 29.78 in 10.0 mi West 16.1 mph 24.2 mph N/A   Clear
3:15 AM 28.4 °F 15.4 °F 26.6 °F 93% 29.77 in 10.0 mi West 19.6 mph 24.2 mph N/A   Clear
3:20 AM 28.4 °F 16.2 °F 26.6 °F 93% 29.77 in 10.0 mi West 17.3 mph 24.2 mph N/A   Clear
3:35 AM 28.4 °F 15.8 °F 28.4 °F 100% 29.76 in 10.0 mi West 18.4 mph 28.8 mph N/A   Clear
3:55 AM 28.4 °F 16.2 °F 26.6 °F 93% 29.76 in 10.0 mi West 17.3 mph 27.6 mph N/A   Clear
4:15 AM 28.4 °F 16.2 °F 28.4 °F 100% 29.75 in 10.0 mi West 17.3 mph 27.6 mph N/A   Clear
4:35 AM 28.4 °F 15.8 °F 28.4 °F 100% 29.74 in 10.0 mi West 18.4 mph 29.9 mph N/A   Clear
4:40 AM 28.4 °F 15.8 °F 28.4 °F 100% 29.74 in 10.0 mi West 18.4 mph 29.9 mph N/A   Clear
4:55 AM 28.4 °F 15.4 °F 28.4 °F 100% 29.74 in 10.0 mi West 19.6 mph 27.6 mph N/A   Clear
5:00 AM 28.4 °F 15.4 °F 28.4 °F 100% 29.74 in 10.0 mi West 19.6 mph 28.8 mph N/A   Clear
5:15 AM 28.4 °F 15.4 °F 28.4 °F 100% 29.73 in 10.0 mi West 19.6 mph 27.6 mph N/A   Clear
5:40 AM 30.2 °F 17.8 °F 28.4 °F 93% 29.73 in 10.0 mi West 19.6 mph 28.8 mph N/A   Clear
5:55 AM 30.2 °F 18.1 °F 28.4 °F 93% 29.73 in 10.0 mi West 18.4 mph 26.5 mph N/A   Clear
6:15 AM 30.2 °F 17.8 °F 28.4 °F 93% 29.72 in 10.0 mi West 19.6 mph 27.6 mph N/A   Clear
6:35 AM 30.2 °F 18.1 °F 28.4 °F 93% 29.71 in 10.0 mi West 18.4 mph 27.6 mph N/A   Mostly Cloudy
6:40 AM 30.2 °F 18.9 °F 28.4 °F 93% 29.71 in 10.0 mi West 16.1 mph 28.8 mph N/A   Mostly Cloudy
6:55 AM 32.0 °F 20.8 °F 28.4 °F 87% 29.72 in 10.0 mi West 17.3 mph 32.2 mph N/A   Overcast
7:15 AM 30.2 °F 16.8 °F 30.2 °F 100% 29.72 in 1.5 mi West 23.0 mph 29.9 mph 0.19 in Snow Light Snow
7:20 AM 30.2 °F - 30.2 °F 100% 29.71 in 1.2 mi North - - 0.32 in Snow Light Snow
7:35 AM 28.4 °F 14.7 °F 28.4 °F 100% 29.70 in 1.5 mi West 21.9 mph 33.4 mph 0.64 in Snow Light Snow
7:40 AM 28.4 °F 15.4 °F 28.4 °F 100% 29.70 in 1.8 mi West 19.6 mph 33.4 mph 0.70 in Snow Light Snow
7:55 AM 28.4 °F 15.8 °F 28.4 °F 100% 29.70 in 2.5 mi West 18.4 mph 34.5 mph 0.77 in Snow Light Snow
8:00 AM 28.4 °F 14.7 °F 28.4 °F 100% 29.70 in 2.5 mi West 21.9 mph 34.5 mph 0.79 in Snow Light Snow
8:15 AM 28.4 °F 15.4 °F 28.4 °F 100% 29.70 in 10.0 mi West 19.6 mph 27.6 mph 0.02 in Snow Light Snow
8:20 AM 30.2 °F 17.1 °F 30.2 °F 100% 29.70 in 10.0 mi West 21.9 mph 27.6 mph 0.02 in Snow Light Snow
8:35 AM 30.2 °F 18.1 °F 30.2 °F 100% 29.70 in 10.0 mi West 18.4 mph 32.2 mph 0.05 in Snow Light Snow
8:40 AM 30.2 °F 16.2 °F 30.2 °F 100% 29.70 in 10.0 mi West 25.3 mph 33.4 mph 0.05 in Snow Light Snow
8:55 AM 30.2 °F 17.1 °F 30.2 °F 100% 29.69 in 10.0 mi West 21.9 mph 35.7 mph 0.06 in Snow Light Snow
9:00 AM 30.2 °F 16.5 °F 30.2 °F 100% 29.69 in 10.0 mi West 24.2 mph 33.4 mph 0.06 in Rain Light Freezing Rain
9:15 AM 30.2 °F 17.1 °F 30.2 °F 100% 29.68 in 10.0 mi West 21.9 mph 33.4 mph N/A Rain Light Freezing Rain
9:20 AM 30.2 °F 17.8 °F 30.2 °F 100% 29.68 in 10.0 mi West 19.6 mph 31.1 mph N/A Rain Light Freezing Rain
9:35 AM 32.0 °F 18.9 °F 32.0 °F 100% 29.68 in 10.0 mi West 24.2 mph 33.4 mph N/A   Mostly Cloudy
9:40 AM 32.0 °F 19.8 °F 32.0 °F 100% 29.68 in 10.0 mi West 20.7 mph 33.4 mph N/A   Mostly Cloudy
9:55 AM 32.0 °F 19.8 °F 30.2 °F 93% 29.68 in 10.0 mi West 20.7 mph 31.1 mph N/A Rain Light Rain
10:15 AM 32.0 °F 19.5 °F 28.4 °F 87% 29.68 in 10.0 mi West 21.9 mph 38.0 mph N/A Rain Light Rain
10:35 AM 32.0 °F 18.6 °F 32.0 °F 100% 29.69 in 3.0 mi West 25.3 mph 35.7 mph 0.17 in Snow Light Snow
10:40 AM 32.0 °F 19.2 °F 32.0 °F 100% 29.69 in 2.5 mi West 23.0 mph 33.4 mph 0.25 in Snow Light Snow
11:00 AM 32.0 °F 19.5 °F 32.0 °F 100% 29.69 in 2.5 mi West 21.9 mph 31.1 mph 0.62 in Snow Light Snow
11:15 AM 32.0 °F 18.6 °F 32.0 °F 100% 29.70 in 6.0 mi West 25.3 mph 34.5 mph 0.10 in Snow Light Snow
11:20 AM 32.0 °F 19.2 °F 32.0 °F 100% 29.70 in 10.0 mi West 23.0 mph 34.5 mph 0.12 in Snow Light Snow
11:35 AM 32.0 °F 18.9 °F 32.0 °F 100% 29.69 in 5.0 mi West 24.2 mph 34.5 mph 0.20 in Snow Light Snow
11:55 AM 32.0 °F - 32.0 °F 100% 29.70 in 0.5 mi North - - 1.19 in Snow Snow
12:15 PM 32.0 °F 20.5 °F 32.0 °F 100% 29.70 in 1.0 mi West 18.4 mph 35.7 mph 0.21 in Snow Light Snow
12:20 PM 32.0 °F 18.9 °F 32.0 °F 100% 29.70 in 1.5 mi West 24.2 mph 35.7 mph 0.24 in Snow Light Snow
12:35 PM 32.0 °F 19.2 °F 32.0 °F 100% 29.71 in 3.0 mi West 23.0 mph 33.4 mph 0.27 in Snow Light Snow
12:40 PM 32.0 °F 19.2 °F 32.0 °F 100% 29.71 in 4.0 mi West 23.0 mph 34.5 mph 0.29 in Snow Light Snow
12:55 PM 32.0 °F 19.2 °F 32.0 °F 100% 29.71 in 6.0 mi West 23.0 mph 34.5 mph 0.34 in Snow Light Snow
1:15 PM 32.0 °F 19.5 °F 32.0 °F 100% 29.72 in 1.8 mi West 21.9 mph 35.7 mph 0.24 in Snow Light Snow
1:20 PM 32.0 °F 18.9 °F 32.0 °F 100% 29.72 in 1.8 mi West 24.2 mph 35.7 mph 0.33 in Snow Light Snow
1:35 PM 32.0 °F 19.8 °F 32.0 °F 100% 29.71 in 1.0 mi West 20.7 mph 31.1 mph 0.77 in Snow Light Snow
1:40 PM 32.0 °F 19.8 °F 32.0 °F 100% 29.71 in 1.0 mi West 20.7 mph 34.5 mph 0.94 in Snow Light Snow
1:55 PM 32.0 °F 20.1 °F 32.0 °F 100% 29.72 in 0.8 mi West 19.6 mph 31.1 mph 1.55 in Snow Light Snow
2:00 PM 32.0 °F 20.1 °F 32.0 °F 100% 29.71 in 1.0 mi West 19.6 mph 31.1 mph 1.74 in Snow Light Snow
2:15 PM 32.0 °F 19.8 °F 32.0 °F 100% 29.72 in 0.8 mi West 20.7 mph 29.9 mph 0.91 in Snow Light Snow
2:35 PM 32.0 °F 21.2 °F 32.0 °F 100% 29.72 in 1.8 mi West 16.1 mph 27.6 mph 1.43 in Snow Light Snow
2:55 PM 32.0 °F 20.1 °F 32.0 °F 100% 29.72 in 1.2 mi West 19.6 mph 27.6 mph 1.65 in Snow Light Snow
3:00 PM 32.0 °F 19.2 °F 32.0 °F 100% 29.72 in 1.2 mi West 23.0 mph 29.9 mph 1.68 in Snow Light Snow
3:15 PM 32.0 °F 19.5 °F 32.0 °F 100% 29.73 in 1.5 mi West 21.9 mph 28.8 mph 0.13 in Snow Light Snow
3:35 PM 32.0 °F 20.1 °F 32.0 °F 100% 29.73 in 1.0 mi West 19.6 mph 31.1 mph 0.90 in Snow Light Snow
3:40 PM 32.0 °F 18.9 °F 32.0 °F 100% 29.73 in 0.8 mi WNW 24.2 mph 31.1 mph 1.08 in Snow Light Snow
4:00 PM 32.0 °F 19.5 °F 32.0 °F 100% 29.74 in 0.8 mi West 21.9 mph 29.9 mph 2.08 in Snow Light Snow
4:15 PM 32.0 °F - 32.0 °F 100% 29.73 in 0.8 mi North - - 0.58 in Snow Light Snow
4:35 PM 32.0 °F 20.1 °F 32.0 °F 100% 29.74 in 4.0 mi WNW 19.6 mph 32.2 mph 0.86 in Snow Light Snow
4:55 PM 32.0 °F 20.5 °F 32.0 °F 100% 29.74 in 9.0 mi WNW 18.4 mph 28.8 mph 0.96 in Snow Light Snow
5:00 PM 32.0 °F 19.5 °F 32.0 °F 100% 29.74 in 7.0 mi WNW 21.9 mph 29.9 mph 0.98 in Snow Light Snow
5:15 PM 32.0 °F 18.9 °F 32.0 °F 100% 29.75 in 1.8 mi WNW 24.2 mph 32.2 mph 0.23 in Snow Light Snow
5:20 PM 32.0 °F 18.9 °F 32.0 °F 100% 29.75 in 2.5 mi WNW 24.2 mph 32.2 mph 0.29 in Snow Light Snow
5:35 PM 32.0 °F 20.5 °F 32.0 °F 100% 29.76 in 2.0 mi WNW 18.4 mph 26.5 mph 0.49 in Snow Light Snow
5:40 PM 32.0 °F 19.5 °F 32.0 °F 100% 29.76 in 2.0 mi WNW 21.9 mph 28.8 mph 0.54 in Snow Light Snow
5:55 PM 32.0 °F 19.2 °F 32.0 °F 100% 29.76 in 1.5 mi WNW 23.0 mph 28.8 mph 0.72 in Snow Light Snow
6:00 PM 32.0 °F 18.9 °F 32.0 °F 100% 29.76 in 1.2 mi WNW 24.2 mph 28.8 mph 0.78 in Snow Light Snow
6:15 PM 32.0 °F 19.5 °F 32.0 °F 100% 29.76 in 1.5 mi WNW 21.9 mph 29.9 mph 0.16 in Snow Light Snow
6:20 PM 32.0 °F 20.1 °F 32.0 °F 100% 29.76 in 1.5 mi WNW 19.6 mph 29.9 mph 0.21 in Snow Light Snow
6:35 PM 32.0 °F 19.5 °F 32.0 °F 100% 29.76 in 1.5 mi WNW 21.9 mph 27.6 mph 0.35 in Snow Light Snow
6:40 PM 32.0 °F 20.1 °F 32.0 °F 100% 29.76 in 2.0 mi WNW 19.6 mph 27.6 mph 0.40 in Snow Light Snow
6:55 PM 32.0 °F 19.5 °F 32.0 °F 100% 29.76 in 10.0 mi WNW 21.9 mph 28.8 mph 0.44 in Snow Light Snow
7:00 PM 32.0 °F 19.8 °F 32.0 °F 100% 29.76 in 10.0 mi WNW 20.7 mph 28.8 mph 0.45 in Snow Light Snow
7:15 PM 32.0 °F 19.2 °F 32.0 °F 100% 29.76 in 10.0 mi WNW 23.0 mph 28.8 mph N/A Rain Light Rain
7:35 PM 32.0 °F 19.5 °F 32.0 °F 100% 29.77 in 10.0 mi WNW 21.9 mph 28.8 mph N/A Rain Light Rain
7:40 PM 32.0 °F 20.1 °F 32.0 °F 100% 29.77 in 10.0 mi WNW 19.6 mph 28.8 mph N/A Rain Light Rain
7:55 PM 32.0 °F 20.1 °F 32.0 °F 100% 29.77 in 10.0 mi WNW 19.6 mph 24.2 mph 0.01 in Snow Light Snow
8:00 PM 32.0 °F 19.8 °F 32.0 °F 100% 29.78 in 10.0 mi WNW 20.7 mph 25.3 mph 0.01 in Snow Light Snow
8:15 PM 32.0 °F 20.5 °F 32.0 °F 100% 29.78 in 10.0 mi WNW 18.4 mph 25.3 mph N/A Rain Light Rain
8:35 PM 32.0 °F 21.2 °F 32.0 °F 100% 29.78 in 10.0 mi WNW 16.1 mph 24.2 mph N/A Rain Light Rain
8:40 PM 32.0 °F 19.5 °F 32.0 °F 100% 29.78 in 10.0 mi WNW 21.9 mph 26.5 mph N/A Rain Light Rain
8:55 PM 32.0 °F 20.5 °F 32.0 °F 100% 29.78 in 10.0 mi WNW 18.4 mph 26.5 mph N/A Rain Light Rain
9:00 PM 32.0 °F 20.5 °F 32.0 °F 100% 29.78 in 10.0 mi WNW 18.4 mph 26.5 mph N/A Rain Light Rain
9:15 PM 32.0 °F 21.2 °F 32.0 °F 100% 29.78 in 10.0 mi WNW 16.1 mph 23.0 mph N/A Rain Light Rain
9:20 PM 32.0 °F 21.2 °F 32.0 °F 100% 29.78 in 10.0 mi WNW 16.1 mph 23.0 mph N/A Rain Light Rain
9:35 PM 32.0 °F 21.2 °F 32.0 °F 100% 29.78 in 10.0 mi WNW 16.1 mph 23.0 mph N/A Rain Light Rain
9:40 PM 32.0 °F 20.8 °F 32.0 °F 100% 29.78 in 10.0 mi WNW 17.3 mph 25.3 mph N/A Rain Light Rain
9:55 PM 32.0 °F 20.5 °F 32.0 °F 100% 29.78 in 10.0 mi WNW 18.4 mph 24.2 mph N/A Rain Light Rain
10:00 PM 32.0 °F 21.2 °F 32.0 °F 100% 29.78 in 10.0 mi WNW 16.1 mph 24.2 mph N/A Rain Light Rain
10:15 PM 32.0 °F 21.2 °F 32.0 °F 100% 29.78 in 10.0 mi West 16.1 mph 24.2 mph N/A Rain Light Rain
10:20 PM 32.0 °F 21.6 °F 32.0 °F 100% 29.78 in 10.0 mi West 15.0 mph 21.9 mph N/A Rain Light Rain
10:35 PM 32.0 °F 21.6 °F 32.0 °F 100% 29.78 in 10.0 mi WNW 15.0 mph 21.9 mph N/A Rain Light Rain
10:55 PM 32.0 °F 22.1 °F 32.0 °F 100% 29.78 in 10.0 mi West 13.8 mph 19.6 mph N/A Rain Light Rain
11:00 PM 32.0 °F 22.1 °F 32.0 °F 100% 29.78 in 10.0 mi West 13.8 mph 19.6 mph N/A Rain Light Rain
11:15 PM 32.0 °F 21.6 °F 32.0 °F 100% 29.78 in 10.0 mi West 15.0 mph 21.9 mph N/A Rain Light Rain
11:35 PM 32.0 °F 21.2 °F 32.0 °F 100% 29.78 in 10.0 mi WNW 16.1 mph 20.7 mph N/A Rain Light Rain
11:40 PM 32.0 °F 21.6 °F 32.0 °F 100% 29.77 in 10.0 mi West 15.0 mph 19.6 mph N/A Rain Light Rain
11:55 PM 32.0 °F 21.2 °F 32.0 °F 100% 29.77 in 10.0 mi West 16.1 mph 21.9 mph N/A   Overcast